Temp
15 15 15 16 16 16 16 16 16 16 17 17 16 16 16 16 16 16 16 14 15 15 15 15 15 15 15 14 13 14 16 15 14 14 14 12 13 10 9 11 9 7 7 6 5
15 15 15 15 15 16 16 17 17 17 17 17 17 16 16 16 16 16 15 15 15 15 16 16 15 15 14 14 13 15 16 14 14 14 14 10 11 10 11 11 10 8 7 5 5
14 15 15 15 15 16 17 17 17 17 17 17 17 16 16 16 16 14 14 15 15 15 16 16 15 15 14 14 13 14 15 14 13 12 11 11 10 8 10 12 8 6 5 5 5
14 14 15 15 15 16 16 16 17 17 17 16 16 16 16 15 17 14 15 15 15 16 16 15 15 15 15 15 13 14 13 13 11 10 10 11 9 8 7 7 5 5 4 4 4
14 14 14 15 15 15 16 16 16 16 16 16 16 16 15 15 13 14 14 15 15 15 16 16 14 14 15 14 14 15 13 11 10 9 9 9 9 9 7 5 5 5 5 4 3
14 14 15 15 15 15 15 16 16 16 16 16 16 16 16 15 14 14 14 14 15 15 15 15 14 13 13 13 14 12 12 11 10 10 9 10 9 7 7 5 5 5 4 3 2
14 14 15 15 15 15 15 15 15 15 15 16 15 16 16 14 14 14 14 15 14 14 14 14 14 13 13 13 11 12 13 12 11 10 10 9 10 10 6 5 6 5 4 3 2
14 14 15 15 15 15 15 15 15 15 15 16 16 16 14 14 14 14 14 14 14 14 14 14 14 13 12 11 12 13 14 14 13 11 9 10 14 9 5 6 6 4 4 2 2
14 14 15 15 15 16 15 15 15 15 15 16 16 16 14 15 14 14 14 14 14 14 14 14 14 12 12 14 14 13 15 14 13 11 10 11 13 8 5 5 5 4 4 3 3
14 14 15 15 15 16 16 16 16 16 16 16 16 16 15 14 14 14 14 14 14 14 14 13 13 15 14 15 15 14 14 13 13 12 10 11 11 8 5 5 4 4 3 2 3
14 14 15 15 15 16 16 17 16 16 16 14 14 14 14 14 14 14 14 14 14 13 15 12 15 14 13 12 12 12 12 12 13 12 11 12 12 11 6 5 4 3 3 2 1
15 15 15 15 15 15 16 16 15 15 14 14 14 14 14 14 14 14 14 13 14 14 13 15 14 13 11 11 11 12 12 13 12 11 10 12 11 12 7 6 4 2 2 1 1
15 15 15 16 15 15 15 15 15 15 15 14 14 14 14 14 13 13 13 12 13 13 12 14 13 11 12 12 13 14 12 12 11 11 11 10 13 8 7 5 3 1 1 1 1
15 15 15 16 15 14 14 14 14 14 17 15 15 14 14 14 13 13 13 12 13 13 12 13 12 12 12 12 12 13 11 10 10 11 12 10 13 11 9 7 5 3 2 0 0
15 15 15 15 14 14 13 13 14 14 16 15 14 14 14 13 13 14 12 12 13 12 13 13 12 12 12 11 11 12 10 10 9 10 10 11 10 13 8 8 7 5 2 1 0
15 15 15 14 14 13 13 13 13 16 13 14 13 12 14 12 12 12 13 12 11 12 12 12 9 11 12 11 10 10 11 10 9 10 10 11 11 15 11 10 9 5 3 0 0
15 15 14 14 13 13 13 13 16 16 13 14 12 12 11 12 13 11 11 12 12 12 12 12 12 11 10 12 10 12 12 12 12 12 13 9 10 13 10 8 8 6 3 0 0
15 14 14 13 13 13 13 15 15 13 13 11 11 12 13 11 12 12 12 13 11 11 11 11 12 11 10 11 11 10 11 11 10 12 12 11 11 14 6 4 4 4 2 -0 -1
14 14 13 13 13 13 13 14 14 12 11 12 12 13 13 12 11 13 12 12 11 10 12 11 12 10 9 10 10 11 11 9 10 9 9 12 12 6 5 4 3 2 1 0 -1
14 13 13 13 14 14 15 12 12 10 10 11 13 12 13 12 12 12 11 11 11 10 9 10 10 10 10 9 9 10 10 11 10 10 10 12 11 12 9 8 5 4 2 1 -1
14 13 13 14 14 14 13 12 11 10 10 12 12 12 12 12 11 11 12 11 10 10 9 10 10 11 10 10 11 10 10 9 9 9 10 10 12 12 10 9 8 6 4 2 -0
14 14 13 14 14 9 12 11 10 10 10 10 10 11 11 11 11 11 11 11 9 10 11 9 9 9 11 10 8 9 10 11 10 9 9 8 9 9 9 8 7 7 5 3 1
13 13 13 14 15 12 9 10 10 10 10 10 11 10 10 10 11 10 10 10 9 9 10 9 9 9 12 10 8 8 9 9 9 8 9 9 11 8 7 7 6 6 5 3 0
12 13 12 12 9 11 11 10 10 9 9 9 10 9 10 10 10 10 10 10 9 9 9 9 9 9 10 10 10 9 9 9 9 8 10 10 11 12 12 11 10 7 4 3 -0
12 8 8 11 10 9 9 9 10 10 9 9 9 10 10 10 10 9 9 10 9 7 7 8 7 8 8 9 9 8 8 8 7 8 8 11 11 12 12 11 9 7 5 2 -0
10 9 8 6 7 8 8 9 9 9 9 9 9 10 10 10 11 11 10 10 9 7 7 5 7 6 5 8 7 7 8 8 7 8 8 8 9 10 9 5 5 4 2 1 -1
10 9 9 6 6 8 10 9 9 8 9 9 9 9 9 9 9 9 9 9 9 8 7 6 6 5 6 6 6 7 9 9 9 7 8 8 11 8 7 5 4 2 1 1 -1
Height
1568 1565 1562 1560 1557 1554 1550 1548 1546 1545 1544 1544 1544 1545 1545 1545 1545 1544 1542 1543 1541 1539 1537 1536 1534 1534 1533 1534 1535 1536 1536 1540 1544 1545 1548 1552 1551 1554 1554 1554 1553 1554 1554 1551 1545
1569 1566 1563 1560 1557 1553 1550 1548 1545 1545 1544 1543 1543 1544 1545 1545 1545 1544 1545 1543 1541 1539 1538 1536 1535 1534 1535 1537 1537 1537 1536 1544 1547 1547 1548 1553 1553 1555 1554 1553 1553 1554 1554 1550 1545
1570 1567 1564 1561 1557 1554 1551 1548 1546 1544 1544 1543 1544 1544 1545 1546 1547 1547 1545 1543 1541 1539 1538 1536 1536 1536 1537 1538 1540 1540 1541 1547 1550 1550 1552 1553 1554 1555 1554 1552 1556 1554 1550 1548 1544
1571 1568 1565 1561 1558 1554 1551 1549 1547 1545 1544 1544 1544 1545 1546 1548 1550 1548 1546 1543 1541 1539 1538 1537 1536 1537 1539 1539 1542 1544 1547 1547 1550 1551 1552 1552 1554 1556 1556 1558 1556 1553 1550 1547 1543
1572 1569 1565 1561 1558 1555 1552 1549 1547 1546 1545 1545 1546 1547 1548 1550 1551 1549 1546 1544 1543 1542 1540 1538 1538 1539 1539 1542 1543 1543 1548 1550 1551 1552 1552 1553 1555 1555 1556 1556 1554 1552 1548 1545 1541
1573 1569 1565 1561 1558 1555 1552 1549 1548 1547 1546 1547 1548 1549 1550 1551 1551 1550 1547 1545 1544 1543 1542 1540 1540 1539 1542 1544 1544 1548 1549 1552 1553 1553 1553 1554 1556 1555 1555 1554 1553 1550 1547 1544 1539
1573 1570 1565 1561 1557 1554 1551 1549 1548 1548 1548 1548 1550 1551 1551 1555 1552 1551 1548 1547 1546 1545 1544 1543 1542 1542 1544 1546 1548 1549 1550 1551 1552 1552 1553 1554 1551 1550 1553 1553 1552 1550 1546 1542 1538
1573 1570 1566 1562 1558 1554 1550 1550 1550 1550 1550 1551 1551 1552 1554 1555 1554 1552 1550 1549 1547 1546 1545 1544 1544 1543 1545 1547 1549 1548 1548 1545 1547 1551 1553 1553 1537 1549 1553 1553 1552 1550 1548 1543 1538
1573 1569 1566 1562 1559 1554 1552 1551 1552 1552 1553 1553 1554 1553 1556 1556 1555 1553 1551 1550 1548 1547 1546 1546 1546 1546 1548 1545 1545 1547 1541 1545 1544 1548 1551 1550 1536 1549 1551 1551 1551 1548 1546 1542 1539
1573 1569 1566 1562 1559 1555 1554 1553 1554 1555 1555 1555 1556 1558 1559 1559 1556 1555 1552 1551 1549 1548 1548 1547 1546 1545 1546 1541 1542 1545 1544 1544 1544 1546 1549 1545 1542 1548 1548 1548 1547 1546 1543 1541 1538
1572 1569 1566 1563 1560 1556 1555 1556 1559 1560 1557 1560 1562 1561 1561 1559 1558 1556 1553 1552 1551 1550 1549 1549 1547 1548 1551 1551 1552 1552 1550 1547 1541 1546 1547 1538 1536 1538 1543 1544 1545 1545 1542 1541 1539
1572 1569 1566 1563 1561 1558 1555 1555 1556 1560 1562 1562 1562 1562 1561 1560 1559 1558 1555 1554 1552 1552 1552 1549 1549 1554 1555 1555 1554 1551 1547 1541 1542 1547 1547 1535 1531 1530 1539 1541 1543 1542 1543 1541 1539
1571 1568 1566 1563 1562 1560 1557 1557 1557 1558 1560 1564 1563 1562 1562 1562 1561 1559 1557 1555 1555 1553 1554 1550 1555 1556 1556 1553 1550 1544 1547 1545 1549 1545 1542 1541 1520 1531 1539 1543 1544 1544 1543 1542 1539
1571 1568 1565 1563 1563 1560 1559 1558 1558 1559 1558 1567 1565 1565 1564 1561 1562 1560 1558 1559 1557 1557 1557 1556 1557 1557 1555 1554 1555 1548 1551 1552 1549 1546 1535 1542 1522 1521 1532 1539 1542 1544 1546 1542 1540
1571 1568 1565 1562 1562 1561 1561 1558 1558 1560 1573 1570 1567 1565 1563 1563 1564 1561 1559 1557 1558 1559 1559 1557 1557 1556 1555 1557 1558 1551 1552 1549 1549 1545 1546 1536 1537 1512 1532 1532 1535 1540 1541 1540 1539
1570 1568 1565 1564 1562 1562 1559 1558 1560 1562 1580 1570 1569 1568 1565 1564 1564 1561 1560 1559 1559 1559 1558 1557 1558 1558 1557 1557 1556 1553 1548 1547 1547 1544 1540 1536 1536 1505 1520 1523 1525 1535 1539 1540 1539
1570 1568 1565 1564 1563 1561 1559 1559 1561 1565 1575 1574 1573 1571 1571 1569 1565 1566 1566 1564 1563 1560 1559 1556 1556 1558 1558 1554 1555 1550 1542 1538 1536 1533 1526 1539 1535 1510 1521 1527 1527 1532 1535 1536 1536
1569 1567 1566 1564 1562 1560 1559 1560 1566 1576 1575 1576 1575 1573 1571 1573 1570 1567 1565 1564 1568 1567 1564 1563 1557 1557 1558 1557 1557 1555 1553 1552 1554 1541 1532 1533 1527 1506 1527 1530 1530 1532 1535 1534 1534
1568 1567 1566 1563 1561 1559 1560 1565 1573 1577 1579 1577 1575 1572 1571 1572 1573 1567 1568 1569 1571 1570 1567 1564 1556 1559 1559 1559 1558 1553 1553 1560 1555 1554 1554 1525 1517 1527 1529 1531 1532 1533 1535 1536 1534
1568 1566 1566 1563 1561 1560 1561 1575 1577 1578 1579 1578 1574 1577 1573 1573 1570 1570 1571 1572 1572 1573 1572 1570 1566 1558 1558 1559 1559 1555 1558 1553 1554 1548 1541 1522 1521 1512 1517 1520 1528 1529 1528 1531 1533
1566 1566 1566 1563 1562 1562 1568 1575 1577 1578 1577 1577 1576 1576 1576 1574 1574 1572 1571 1573 1573 1572 1572 1571 1572 1557 1559 1554 1552 1556 1554 1556 1556 1553 1545 1535 1511 1508 1513 1516 1518 1521 1523 1526 1527
1565 1565 1565 1562 1564 1570 1572 1576 1577 1578 1578 1578 1578 1577 1577 1577 1575 1574 1573 1571 1572 1572 1571 1574 1572 1566 1553 1555 1558 1557 1552 1550 1550 1551 1551 1553 1525 1513 1514 1515 1516 1515 1517 1520 1523
1566 1566 1565 1563 1564 1570 1575 1576 1576 1577 1577 1577 1577 1578 1578 1577 1577 1574 1573 1572 1572 1573 1571 1573 1570 1566 1546 1555 1559 1556 1555 1554 1554 1554 1548 1546 1514 1510 1513 1513 1511 1510 1511 1512 1515
1566 1566 1567 1566 1570 1572 1574 1576 1576 1577 1576 1576 1576 1577 1577 1576 1576 1574 1572 1570 1570 1570 1570 1571 1569 1566 1560 1553 1556 1552 1550 1551 1550 1547 1534 1521 1509 1498 1505 1505 1506 1507 1507 1508 1509
1566 1568 1569 1570 1572 1574 1575 1576 1576 1575 1576 1575 1576 1575 1574 1574 1573 1571 1571 1569 1567 1568 1570 1571 1568 1563 1557 1554 1552 1544 1537 1540 1543 1534 1536 1502 1507 1491 1496 1498 1498 1499 1501 1503 1504
1567 1568 1570 1572 1573 1573 1574 1574 1573 1574 1573 1572 1573 1572 1574 1573 1568 1566 1567 1566 1564 1567 1567 1569 1563 1564 1558 1548 1548 1541 1533 1530 1530 1524 1521 1513 1504 1496 1497 1499 1499 1497 1497 1498 1501
1563 1565 1568 1574 1575 1574 1572 1573 1573 1573 1571 1570 1570 1570 1569 1567 1566 1566 1565 1563 1562 1562 1565 1566 1564 1563 1551 1549 1549 1535 1513 1514 1515 1516 1513 1509 1492 1496 1496 1497 1497 1496 1495 1495 1497
Wind_Speed
18 17 16 14 16 16 14 9 6 4 4 2 2 4 7 8 10 6 11 10 9 8 8 6 7 4 8 9 8 4 2 4 3 4 4 2 2 3 1 3 2 9 7 17 23
21 21 18 15 18 18 15 11 6 4 3 1 3 7 10 7 7 13 12 10 8 8 8 6 10 8 5 5 5 3 3 3 3 5 4 5 2 3 2 3 4 10 16 18 19
22 23 20 16 19 19 16 11 10 6 2 2 4 8 9 6 2 9 11 9 8 7 8 6 5 7 8 6 5 3 4 7 4 8 7 6 5 3 6 2 11 20 22 20 18
22 23 22 17 19 19 16 12 10 6 5 5 8 9 7 5 1 7 10 8 7 7 7 9 4 4 4 4 3 7 5 3 8 7 5 5 7 5 8 4 10 14 17 17 18
22 22 22 21 17 20 16 11 8 7 7 9 11 11 10 6 6 8 9 7 6 6 6 6 9 4 5 5 6 8 5 4 6 6 6 7 3 2 5 6 8 11 15 17 17
23 23 22 22 18 19 15 9 7 7 7 9 10 6 4 5 6 10 9 7 6 5 8 11 6 9 8 4 3 3 6 10 7 6 5 3 2 3 1 7 9 13 17 17 17
23 24 22 23 19 17 14 6 5 7 8 8 9 12 12 6 7 11 9 6 8 6 7 9 9 3 4 5 4 8 6 4 7 6 3 3 6 6 1 5 8 13 15 18 20
22 24 22 21 20 21 9 5 6 8 9 10 5 5 6 7 8 10 10 6 6 5 4 6 7 9 4 7 3 1 2 4 6 7 3 4 9 6 2 5 7 9 11 16 19
23 22 21 19 20 21 8 6 9 8 9 6 3 4 3 5 7 10 11 4 3 3 5 4 3 5 3 2 3 2 4 5 3 8 3 10 7 5 2 1 3 5 9 12 17
23 21 20 18 21 20 11 14 11 9 9 7 6 3 9 6 6 9 11 4 3 1 2 2 3 1 2 3 3 5 6 3 7 4 8 10 14 6 6 3 1 4 7 9 14
22 19 18 17 18 22 6 6 3 6 18 11 7 5 8 4 8 10 12 3 3 5 3 5 2 6 5 2 2 3 6 8 8 2 5 11 14 11 12 7 4 1 4 7 9
21 18 18 17 15 20 6 2 6 9 9 9 9 9 8 7 3 16 13 4 5 4 4 1 4 3 1 0 3 5 9 6 5 2 4 11 16 9 13 7 4 0 4 7 8
18 16 15 14 8 14 15 8 8 5 3 5 8 9 8 6 5 12 13 4 5 4 5 2 3 3 2 3 7 9 5 5 6 8 8 10 11 6 8 5 4 0 1 4 8
17 16 15 12 6 14 15 4 5 3 2 8 6 6 7 2 2 13 11 4 3 4 2 2 3 3 4 3 5 9 2 5 11 7 6 3 6 4 6 9 7 4 2 3 6
16 16 14 11 7 12 12 3 4 3 1 6 4 6 5 5 6 10 9 4 3 3 3 3 4 4 2 4 2 5 6 8 4 6 6 3 4 3 3 8 11 8 4 1 3
15 15 13 9 7 12 11 3 4 2 1 2 4 8 3 7 5 11 6 7 3 0 1 1 1 1 3 2 2 9 7 4 2 2 3 2 3 4 3 2 8 11 6 1 2
15 14 10 9 8 13 9 3 1 3 1 5 3 5 2 6 4 8 5 8 6 4 7 5 0 1 2 4 3 10 8 3 2 2 3 2 5 8 1 1 4 13 11 6 3
14 11 7 9 10 11 4 2 4 0 1 1 2 2 2 7 2 7 2 3 5 3 2 5 1 4 3 2 4 4 4 3 5 5 10 1 5 1 2 3 5 9 10 9 7
12 5 7 12 12 8 2 5 2 0 2 5 1 2 1 2 4 5 4 3 3 6 6 6 3 1 1 1 3 2 1 2 4 2 4 3 5 4 3 4 6 9 11 11 9
11 1 10 12 9 6 3 3 2 1 1 1 3 2 3 5 5 5 3 2 1 2 3 1 6 1 1 2 1 2 2 2 1 5 6 6 8 9 4 8 10 14 18 15 12
7 1 9 10 5 5 4 2 2 2 0 1 0 2 1 3 2 3 2 1 1 1 1 0 2 1 3 3 1 1 2 2 2 3 4 6 7 1 3 3 9 16 18 19 17
3 1 8 4 3 4 2 1 1 1 1 0 1 1 1 2 3 2 2 3 3 1 2 1 2 5 9 2 1 3 3 4 3 2 4 4 9 3 4 5 7 10 17 20 19
2 2 6 3 2 2 2 2 1 2 1 1 1 1 1 1 3 3 2 2 2 2 1 3 2 6 3 3 2 3 2 3 3 2 10 8 7 4 5 6 8 10 14 20 21
2 0 5 7 7 3 2 1 1 0 1 1 1 1 1 3 3 3 3 1 2 4 2 5 3 8 9 13 10 16 12 8 10 9 14 19 25 26 18 17 17 15 15 20 22
2 2 2 2 3 3 1 1 1 2 1 2 2 5 4 3 3 4 3 3 4 2 2 3 5 8 14 17 18 21 22 17 17 23 12 25 18 26 21 18 21 16 14 20 23
1 3 4 3 3 3 1 3 3 1 3 3 4 3 5 5 7 12 9 8 8 3 4 3 4 2 9 16 15 20 17 17 17 21 20 25 27 24 24 5 7 8 11 19 22
4 5 4 2 1 1 2 3 4 2 5 6 6 4 7 14 15 17 18 18 16 7 6 4 3 1 5 1 8 13 13 8 4 8 6 9 12 3 5 7 8 8 10 15 19
Wind_Direction
21 19 18 22 15 11 7 8 358 341 330 293 203 150 139 96 57 56 37 22 20 20 10 29 25 80 65 59 53 56 99 122 116 162 120 94 206 53 246 13 29 14 6 319 322
21 18 17 15 11 10 14 9 12 7 8 40 176 162 163 140 58 47 32 20 16 28 40 61 63 75 66 42 31 35 110 97 73 109 125 87 97 12 317 335 353 343 325 329 331
18 16 15 13 9 10 14 21 20 19 34 79 143 159 170 176 62 18 19 23 24 29 42 59 82 80 69 58 24 42 100 125 84 121 125 123 103 55 353 14 353 330 330 332 334
15 12 11 6 7 6 7 11 16 31 57 110 130 143 155 158 46 1 14 20 30 35 38 50 63 71 72 77 51 110 95 118 137 142 137 164 137 104 53 349 331 334 333 334 336
14 10 5 4 357 360 3 5 20 47 77 112 126 130 128 86 53 21 10 24 36 56 58 57 62 88 99 96 90 105 124 97 137 147 134 137 114 130 48 359 357 352 352 344 338
10 8 5 2 357 357 0 7 38 69 101 122 132 132 125 78 42 21 20 26 47 60 54 59 80 103 94 74 26 90 124 126 142 150 156 170 135 197 190 359 1 3 357 355 351
7 7 6 2 3 1 358 17 57 82 106 119 121 107 87 78 44 25 21 27 38 54 54 61 64 83 107 109 100 129 135 163 186 192 182 174 216 219 337 2 9 8 6 2 358
359 5 8 8 6 0 19 61 74 93 118 122 113 79 75 62 39 18 9 17 27 34 52 63 85 77 62 122 89 167 216 250 154 185 172 221 281 168 36 356 10 10 7 11 13
358 1 9 11 13 9 56 58 100 99 111 112 82 84 55 30 19 13 7 8 10 39 42 44 68 82 98 194 165 176 305 274 259 207 169 214 288 154 118 8 341 7 15 11 8
353 356 6 12 16 23 81 93 90 89 98 80 46 80 27 351 13 10 3 17 13 8 3 41 46 95 48 343 358 327 308 278 279 178 218 237 258 188 193 182 237 343 15 5 15
349 353 1 9 18 23 135 118 82 78 68 74 60 71 12 17 36 9 6 12 23 45 14 17 48 21 4 4 5 307 288 286 286 258 268 262 269 226 201 196 198 296 18 360 1
347 352 356 4 21 24 61 143 121 126 85 63 55 43 26 30 1 14 15 29 31 35 335 192 53 11 347 196 298 298 308 314 282 259 266 295 270 245 203 208 191 207 356 0 4
347 355 357 2 24 24 38 100 119 114 92 45 39 27 18 17 34 1 15 16 36 40 20 28 44 344 315 308 324 332 300 335 318 312 253 293 269 206 206 192 178 199 332 4 9
348 355 1 7 19 15 24 50 154 134 133 5 4 13 1 358 61 8 11 16 44 30 2 9 356 348 335 331 334 325 12 316 310 310 318 339 300 193 189 207 209 198 295 12 13
349 355 0 13 17 17 360 33 145 136 104 348 351 345 12 65 331 0 11 30 48 19 296 24 351 354 339 0 300 316 318 301 300 288 305 186 268 90 165 219 215 203 188 147 37
348 350 353 6 18 5 2 101 124 187 323 23 339 356 5 23 14 350 18 27 72 136 14 357 277 254 339 305 253 300 287 271 205 261 253 63 314 297 217 251 196 182 176 185 62
350 350 2 22 3 357 4 123 151 53 356 3 343 356 5 354 9 15 18 33 24 354 8 329 29 57 351 303 200 342 333 326 282 294 309 174 272 277 318 169 235 183 173 179 178
350 350 14 9 352 347 10 197 76 66 353 8 321 309 46 355 44 355 20 51 60 7 333 353 330 0 13 29 329 6 350 15 321 325 304 308 246 314 81 115 129 162 173 178 188
347 6 13 357 358 1 51 52 52 119 331 329 309 7 43 17 342 342 36 23 13 0 13 340 281 335 37 336 302 58 0 11 271 251 271 271 274 185 175 193 178 181 190 205 200
352 48 9 356 4 19 67 105 127 180 328 311 4 346 328 340 339 3 5 57 57 6 312 86 290 160 278 186 99 312 121 256 207 308 300 280 293 269 225 223 209 212 210 207 207
357 57 356 357 26 47 73 90 154 166 121 357 230 275 287 315 322 329 340 119 216 185 17 170 257 241 270 208 277 205 199 187 282 259 289 311 289 345 272 209 220 227 217 208 206
2 174 357 26 44 47 80 111 145 147 56 102 132 267 276 325 299 293 282 249 204 224 329 48 309 283 285 358 354 274 255 220 267 251 251 289 273 164 253 245 239 236 220 212 211
13 17 16 69 92 97 114 118 142 165 182 169 202 243 173 271 292 231 255 304 215 247 353 165 228 299 275 158 112 244 200 248 301 326 263 266 264 177 210 240 236 232 219 207 200
37 124 33 58 79 94 134 128 158 246 209 198 160 149 199 245 222 290 265 289 204 223 251 180 232 240 274 296 301 283 265 246 249 272 261 246 271 277 270 283 286 268 237 210 199
69 102 113 82 64 89 90 127 162 228 228 209 205 226 207 255 244 231 242 278 239 211 171 214 244 239 258 274 272 268 270 260 243 244 256 270 273 277 293 300 298 294 244 205 199
106 139 100 109 134 146 180 188 189 235 210 204 225 190 210 236 239 283 280 285 263 142 174 190 263 243 279 261 269 269 275 259 250 260 251 261 271 280 289 287 288 288 221 209 204
146 136 143 129 133 199 191 176 196 197 229 233 221 237 244 251 263 275 270 262 253 251 207 198 225 290 270 199 298 277 262 216 198 229 235 250 272 295 263 270 294 290 237 222 208